Regional Weather Roundup
Issued by NWS

Home | Current Version | Previous Version | Text Only | Print | Product List | Glossary On
Versions: 1 2 3 4 5 6 7 8 9 10 11 12 13 14 15 16 17 18 19 20 21 22 23 24 25 26 27
000
ASUS42 KKEY 280710
RWRKEY

FLORIDA REGIONAL WEATHER ROUNDUP FOR THE FLORIDA KEYS
NATIONAL WEATHER SERVICE KEY WEST FLORIDA
300 AM EDT SUN MAY 28 2017

...SOUTH FLORIDA AND THE KEYS...

CITY           SKY/WX    TMP DP  RH WIND       PRES   REMARKS
FORT MYERS     CLEAR     75  70  84 CALM      29.97F
SW REGIONAL AP CLEAR     71  65  81 SE3       29.98F
NAPLES         CLEAR     77  69  76 CALM      29.98F
MIAMI          PTCLDY    81  69  67 NW7       29.98F
WEST KENDALL     N/A    N/A N/A N/A MISG      29.99F
HOMESTEAD      CLEAR     76  74  93 W5        29.98F
MARATHON       CLEAR     84  76  76 N3        29.99F HX  93
BOCA CHICA NAS CLEAR     81  77  88 NE3       30.00F
KEY WEST INTL  CLEAR     82  76  81 N5        30.00F

...INTERNATIONAL WEATHER...

CITY           SKY/WX    TMP DP  RH WIND       PRES   REMARKS
NASSAU BAHAMAS PTCLDY    79  73  83 CALM      30.01F
CANCUN MEXICO  MOCLDY    81  77  89 E6        29.99F
COZUMEL MEXICO MOCLDY    77  75  94 CALM      29.97F

ADJACENT COASTAL WATERS...

STATION/POSITION TIME  SKY/WX   TEMP    WIND        PRES    WAVE
                                AIR SEA DIR/SP/G            HT/PER
                 (UTC)          (F)     (DEG/KT/KT) (MB)    (FT/S)
PULASKI SHOAL LI 0700            81      60/  9/ 10 1015.6F
SAND KEY         0650            82      50/  7/  8 1016.5F
LONG KEY         0600            84 88  320/  7/  8 1016.1F
MOLASSES REEF    0700            83 83  360/  6/  7 1015.9F
FOWEY ROCKS      0700            82 83  300/  8/ 10 1015.9F
Buoy 42097       0630                                 N/A     1/ 6

$$




USA.gov is the U.S. government's official web portal to all federal, state and local government web resources and services.